Weather in Sopot

Bulgaria     42°39′13″N   24°45′20″E
temp.,
°C
wind,
m/s
gust,
m/s
humid.,
%
clouds,
%
prec.,
mm/h
press.,
hPa
HPBL,
m
20 april, tue
tue2000:00+1n2499100 3.4 1012288
03:00+1n3499100 4.1 1012393
06:00+1nnw2399100 0.9 1012284
09:00+1nnw23100100 1.6 1014250
12:00+3nnw2399100 0.1 1015277
15:00+6nnw238163 0.4 1013803
18:00+6n118014 0.8 1013438
21:00+2ese01916 1.1 101612
21 april, wed
wed2100:00+1sw11885 0.0 101714
03:00+1s11886 0.0 101716
06:00+1sw11868 0.0 101813
09:00+6ne117928 0.0 1018272
12:00+9sw127194 1.1 1017920
15:00+9nw226828 4.1 10171006
18:00+8n127749 2.4 1017440
21:00+3ssw01876 3.7 102012
22 april, thu
thu2200:00+3sw11844 0.0 102116
03:00+3ssw11832 0.0 102118
06:00+3ssw11821 0.0 102118
09:00+8ssw11710 0.0 1021216
12:00+11s235920 0.0 10201418
15:00+12s336018 0.8 10191174
18:00+12s226147 0.4 10181231
21:00+6s228699 0.5 102024
23 april, fri
fri2300:00+6ssw1184100 0.1 101923
03:00+7ssw1181100 0.1 101818
06:00+7nw117688 0.0 101812
09:00+9wnw1273100 0.1 1019807
12:00+9nw2282100 0.4 1020565
15:00+8n238780 0.6 1021458
18:00+7n338963 0.0 1021269
21:00+5nnw2387100 0.0 102362
24 april, sat
sat2400:00+3n238597 0.0 102451
03:00+3n347887 0.0 1024196
06:00+1n237494 0.0 102465
09:00+5n2361100 0.0 1024361
12:00+7nne2254100 0.0 1022885
15:00+6sse1178100 0.1 1022784
18:00+6s1185100 0.1 1021488
21:00+4ssw1196100 0.6 1021107